Погода в Тайпалсаари

Финляндия     61°09′29″N   28°04′01″E
темп.,
°C
ветер,
м/с
пор.,
м/с
влажн.,
%
обл.,
%
осадки,
мм/ч
давл.,
гПа
погр.,
м
18 января, пн
пн1823:00−6зсз469599 0.1 1016235
02:00−7зсз359698 0.1 1016190
05:00−7з339690 0.0 1016146
08:00−8зюз339693 0.1 1016114
11:00−8юз349168 0.0 1016143
14:00−6юз359234 0.0 1015208
17:00−6ююз489679 0.0 1014230
20:00−6юз469685 0.1 1014217
19 января, вт
вт1923:00−5ююз5994100 0.1 1014286
02:00−5ююз599395 0.1 1014315
05:00−5ююз5109594 0.0 1012336
08:00−5ююз589395 0.0 1013288
11:00−4ююз589297 0.0 1013355
14:00−4ююз589181 0.0 1012444
17:00−5ююз479294 0.0 1012324
20:00−5юз369193 0.1 1012303
20 января, ср
ср2023:00−5ююз459697 0.0 1012173
02:00−6ююз479597 0.1 1013212
05:00−7ю479696 0.0 1012255
08:00−6ю479095 0.1 1011382
11:00−8ююв588650 0.0 1011328
14:00−8ююв698125 0.0 1010358
17:00−8ююв6108178 0.0 1007413
20:00−9юв7108789 0.0 1005418
21 января, чт
чт2123:00−9юв71093100 0.3 1002418
02:00−8юв71092100 1.7 999613
05:00−8вюв6993100 3.1 996614
08:00−8в5792100 5.3 995479
11:00−7св5686100 0.2 996548
14:00−7всв7985100 0.3 999487
17:00−7всв6885100 0.0 1001530
20:00−9в7985100 0.1 1002529
22 января, пт
пт2223:00−8в71085100 0.0 1003691
02:00−7в81192100 0.5 1004725
05:00−7вюв91393100 0.7 1004717
08:00−7вюв101593100 2.3 1003688
11:00−7вюв101494100 1.9 1004624
14:00−7вюв91294100 3.6 1003561
17:00−7в91394100 1.9 1004563
20:00−8в101394100 3.8 1004555